Zurück zum Katalog

TITAN 3C TRANSTAGE DEB

LostHEO
NORAD 28551·DEBRIS·🇺🇸 United States

Gestartet Dec 21, 1965 von Cape Canaveral Space Force Station

Loading…

Nächste Überflüge (nächste 24 Stunden)

TLE

VeraltetSource: Space-Track

Epoche: Jan 13, 2026, 10:34 UTC

1 28551U 65108BS  26013.44092678  .00000029  00000-0  43606-3 0  9996
2 28551  27.1101 317.2964 5967277 171.2314 207.6937  3.90380524 50710

Verfolge TITAN 3C TRANSTAGE DEB in Echtzeit mit AllMySat

Download on the App Store